Location: Misciano
(43.5000°N, 11.9500°E)
Time: 21:34:18
(UTC+00:00)

Meteor 2-4 Rocket - Pass Details

Date: 13 August 2020
Orbit: 798 x 909 km, 81.2° (Epoch: 21 September)

Event Time Altitude Azimuth Distance (km) Brightness Sun altitude
Rises 20:14:49 0° 355° (N) 3,441 7.6 -18.8°
Reaches altitude 10° 20:17:25 10° 3° (N) 2,482 6.7 -19.1°
Maximum altitude 20:22:44 42° 73° (ENE) 1,171 4.2 -19.8°
Enters shadow 20:24:08 36° 109° (ESE) 1,298 4.2 -20.0°
